Location: Champseau
(45.8333°N, 1.7667°E)
Time: 07:17:53
(UTC+00:00)

SL-16 R/B - Pass Details

Date: 18 April 2021
Orbit: 840 x 849 km, 71.0° (Epoch: 05 May)

Event Time Altitude Azimuth Distance (km) Brightness Sun altitude
Rises 20:27:56 0° 340° (NNW) 3,424 6.4 -16.9°
Reaches altitude 10° 20:30:49 10° 353° (N) 2,484 5.3 -17.3°
Maximum altitude 20:35:33 26° 49° (NE) 1,611 3.6 -18.0°
Enters shadow 20:37:53 20° 84° (E) 1,859 3.6 -18.3°
